Location: Most
(50.5133°N, 13.6207°E)
Time: 08:57:11
(UTC+01:00)

Oscar 11 - Pass Details

Date: 06 December 2021
Orbit: 611 x 625 km, 97.6° (Epoch: 26 January)

Event Time Altitude Azimuth Distance (km) Brightness Sun altitude
Rises 17:27:24 0° 197° (SSW) 2,896 11.1 -12.8°
Reaches altitude 10° 17:29:54 10° 211° (SSW) 1,996 10.4 -13.2°
Maximum altitude 17:33:31 25° 267° (W) 1,264 9.5 -13.7°
Drops below altitude 10° 17:37:10 10° 323° (NW) 2,011 9.9 -14.2°
Sets 17:39:42 0° 337° (NNW) 2,924 10.6 -14.6°
